Location: Forcarei
(42.5879°N, 8.3520°W)
Time: 10:54:19
(UTC+02:00)

ISS - Visible Passes

Search period start: 15 October 2019 00:00
Search period end: 25 October 2019 00:00
Orbit: 411 x 421 km, 51.6° (Epoch: 15 October)

Date Brightness Start Highest point End Pass type
(mag) Time Alt. Az. Time Alt. Az. Time Alt. Az.
22 Oct -0.8 08:22:39 10° S 08:25:01 18° SE 08:27:23 10° E visible
23 Oct -0.4 07:36:02 10° SE 07:36:40 10° SE 07:37:19 10° ESE visible
24 Oct -2.7 08:21:07 10° SW 08:24:22 48° SE 08:27:38 10° ENE visible
